Weather History for Branson, MO

Change the Weather History Date:

Sunday, July 21, 2013

  Actual Average (KHRO) Record (KHRO)
Temperature  
Mean Temperature 74 °F 79 °F  
Max Temperature 80 °F 89 °F 105 °F (1934)
Min Temperature 68 °F 68 °F 50 °F (1909)
Degree Days  
Heating Degree Days 0 0  
Month to date heating degree days 0  
Since 1 June heating degree days 6  
Since 1 July heating degree days 0  
Cooling Degree Days 9 14  
Month to date cooling degree days 275  
Year to date cooling degree days 679  
Since 1 June cooling degree days 540  
Growing Degree Days 24 (Base 50)    
Moisture  
Dew Point 70 °F    
Average Humidity 90    
Maximum Humidity 100    
Minimum Humidity 65    
Precipitation  
Precipitation 0.00 in 0.10 in 1.67 in (1899)
Month to date precipitation 2.10  
Year to date precipitation 24.34  
Snow  
Snow 0.00 in 0.00 in - ()
Month to date snowfall 0.0  
Since 1 June snowfall 0.0  
Since 1 July snowfall 0.0  
Snow Depth -    
Sea Level Pressure  
Sea Level Pressure 29.94 in    
Wind  
Wind Speed 1 mph (SSE)    
Max Wind Speed 14 mph    
Max Gust Speed -    
Visibility 9 miles    
Events      
T = Trace of Precipitation, MM = Missing Value Source: NWS Daily Summary

Daily Weather History Graph

Daily Weather History Graph

Search for Another Location

Airport:

Trip Planner

Search our weather history database for the weather conditions in past years. The results will help you decide how hot, cold, wet, or windy it might be!

Date:

Astronomy

Jul. 21, 2013 Rise Set
Actual Time 6:10 AM CDT 8:27 PM CDT
Civil Twilight 5:41 AM CDT 8:56 PM CDT
Nautical Twilight 5:05 AM CDT 9:32 PM CDT
Astronomical Twilight 4:26 AM CDT 10:11 PM CDT
Moon 7:27 PM CDT (7/21) 4:56 AM CDT (7/21)
Length of Visible Light 15h 15m
Length of Day
14h 16m
Waxing Gibbous, 98% of the Moon is Illuminated
Jul 21
Waxing Gibbous
Jul 22
Full
Jul 29
Last Quarter
Aug 6
New
Aug 14
First Quarter

Hourly Weather History & Observations

Time (CDT) Temp. Heat Index Dew Point Humidity Pressure Visibility Wind Dir Wind Speed Gust Speed Precip Events Conditions
12:15 AM 71.6 °F - 66.2 °F 83% 29.97 in 10.0 mi Calm Calm - N/A   Clear
12:35 AM 71.6 °F - 68.0 °F 88% 29.96 in 10.0 mi Calm Calm - N/A   Clear
12:55 AM 71.6 °F - 66.2 °F 83% 29.96 in 10.0 mi Calm Calm - N/A   Clear
1:15 AM 71.6 °F - 66.2 °F 83% 29.95 in 10.0 mi SSE 4.6 mph - N/A   Clear
1:35 AM 71.6 °F - 66.2 °F 83% 29.95 in 10.0 mi South 3.5 mph - N/A   Clear
1:55 AM 71.6 °F - 66.2 °F 83% 29.95 in 10.0 mi Calm Calm - N/A   Partly Cloudy
2:15 AM 71.6 °F - 66.2 °F 83% 29.95 in 10.0 mi SSE 3.5 mph - N/A   Partly Cloudy
2:35 AM 71.6 °F - 66.2 °F 83% 29.95 in 10.0 mi Calm Calm - N/A   Clear
2:55 AM 71.6 °F - 66.2 °F 83% 29.95 in 10.0 mi Calm Calm - N/A   Clear
3:15 AM 69.8 °F - 66.2 °F 88% 29.96 in 10.0 mi Calm Calm - N/A   Scattered Clouds
3:35 AM 68.0 °F - 68.0 °F 100% 29.96 in 10.0 mi Calm Calm - N/A   Mostly Cloudy
3:55 AM 69.8 °F - 68.0 °F 94% 29.96 in 10.0 mi Calm Calm - N/A   Overcast
4:15 AM 69.8 °F - 68.0 °F 94% 29.96 in 10.0 mi Calm Calm - N/A   Overcast
4:35 AM 68.0 °F - 68.0 °F 100% 29.96 in 10.0 mi Calm Calm - N/A   Overcast
4:55 AM 68.0 °F - 68.0 °F 100% 29.96 in 10.0 mi Calm Calm - N/A   Overcast
5:15 AM 68.0 °F - 68.0 °F 100% 29.95 in 10.0 mi Calm Calm - N/A   Scattered Clouds
5:35 AM 68.0 °F - 68.0 °F 100% 29.96 in 10.0 mi Calm Calm - N/A   Clear
5:55 AM 68.0 °F - 68.0 °F 100% 29.96 in 10.0 mi Calm Calm - N/A   Clear
6:15 AM 68.0 °F - 68.0 °F 100% 29.97 in 10.0 mi Calm Calm - N/A   Clear
6:35 AM 68.0 °F - 68.0 °F 100% 29.98 in 7.0 mi Calm Calm - N/A   Mostly Cloudy
6:51 AM 68.0 °F - 68.0 °F 100% 29.97 in 8.0 mi Calm Calm - N/A   Overcast
7:48 AM 71.6 °F - 68.0 °F 88% 29.98 in 10.0 mi Calm Calm - N/A   Mostly Cloudy
8:52 AM 75.2 °F - 68.0 °F 78% 29.99 in 10.0 mi Calm Calm - N/A   Mostly Cloudy
9:50 AM 78.8 °F - 68.0 °F 69% 29.99 in 10.0 mi Calm Calm - N/A   Overcast
10:45 AM 80.6 °F 83.2 °F 68.0 °F 65% 29.98 in 10.0 mi Calm Calm - N/A   Overcast
11:48 AM 80.6 °F 83.2 °F 68.0 °F 65% 29.99 in 10.0 mi Calm Calm - N/A   Overcast
12:50 PM 77.0 °F - 71.6 °F 83% 29.98 in 10.0 mi Calm Calm - N/A   Overcast
1:46 PM 75.2 °F - 69.8 °F 83% 29.97 in 10.0 mi South 13.8 mph - N/A   Overcast
2:45 PM 78.8 °F - 69.8 °F 74% 29.93 in 10.0 mi South 6.9 mph - N/A   Overcast
3:45 PM 80.6 °F 84.6 °F 71.6 °F 74% 29.93 in 10.0 mi SSW 4.6 mph - N/A   Overcast
4:45 PM 77.0 °F - 73.4 °F 89% 29.92 in 7.0 mi South 4.6 mph - N/A   Overcast
5:45 PM 77.0 °F - 73.4 °F 89% 29.90 in 9.0 mi SSE 4.6 mph - N/A   Mostly Cloudy
6:45 PM 78.8 °F - 73.4 °F 83% 29.89 in 10.0 mi SSE 6.9 mph - N/A   Mostly Cloudy
7:45 PM 77.0 °F - 73.4 °F 89% 29.90 in 10.0 mi ESE 3.5 mph - N/A   Mostly Cloudy
8:45 PM 75.2 °F - 73.4 °F 94% 29.90 in 10.0 mi SSE 4.6 mph - N/A   Mostly Cloudy
8:55 PM 75.2 °F - 73.4 °F 94% 29.90 in 8.0 mi Calm Calm - N/A   Partly Cloudy
9:15 PM 75.2 °F - 73.4 °F 94% 29.90 in 8.0 mi Calm Calm - N/A   Partly Cloudy
9:35 PM 73.4 °F - 73.4 °F 100% 29.91 in 5.0 mi Calm Calm - N/A   Partly Cloudy
9:55 PM 73.4 °F - 73.4 °F 100% 29.91 in 5.0 mi Calm Calm - N/A   Partly Cloudy
10:15 PM 73.4 °F - 73.4 °F 100% 29.92 in 6.0 mi SE 4.6 mph - N/A   Partly Cloudy
10:35 PM 73.4 °F - 73.4 °F 100% 29.92 in 6.0 mi ESE 5.8 mph - N/A   Clear
10:55 PM 73.4 °F - 73.4 °F 100% 29.92 in 7.0 mi SE 4.6 mph - N/A   Clear
11:15 PM 73.4 °F - 73.4 °F 100% 29.92 in 5.0 mi Calm Calm - N/A   Clear
11:35 PM 71.6 °F - 71.6 °F 100% 29.92 in 4.0 mi Calm Calm - N/A   Scattered Clouds
11:55 PM 71.6 °F - 71.6 °F 100% 29.91 in 4.0 mi Calm Calm - N/A   Scattered Clouds